Location: Banksville Park
(38.5557°N, 75.1182°W)
Time: 13:27:28
(UTC+00:00)

MSX - Pass Details

Date: 19 September 2020
Orbit: 895 x 906 km, 98.8° (Epoch: 20 October)

Event Time Altitude Azimuth Distance (km) Brightness Sun altitude
Rises 08:31:48 0° 11° (NNE) 3,538 7.4 -26.2°
Reaches altitude 10° 08:34:13 10° 11° (N) 2,592 6.6 -25.8°
Maximum altitude 08:40:00 79° 286° (WNW) 923 3.7 -24.7°
Enters shadow 08:41:28 52° 210° (SSW) 1,108 3.9 -24.5°
